Dansville, NY

6:28 PM EDT on August 20, 2017 (GMT -0400)
Dansville Municipal

Weather History for KDSV - April, 2014

Change the Weather History Date:

Monday, April 28, 2014

  Actual Average Record
Temperature  
Mean Temperature 44 °F -  
Max Temperature 60 °F 62 °F 88 °F (1990)
Min Temperature 30 °F 36 °F 24 °F (1993)
Degree Days  
Heating Degree Days 20    
Moisture  
Dew Point 32 °F    
Average Humidity 57    
Maximum Humidity 89    
Minimum Humidity 37    
Precipitation  
Precipitation 0.00 in - - ()
Sea Level Pressure  
Sea Level Pressure 30.13 in    
Wind  
Wind Speed 5 mph (SE)    
Max Wind Speed 16 mph    
Max Gust Speed 20 mph    
Visibility 10 miles    
Events      
Averages and records for this station are not official NWS values.
T = Trace of Precipitation, MM = Missing Value Source: NWS Daily Summary

Daily Weather History Graph

Daily Weather History Graph

Search for Another Location

Airport or City:

Trip Planner

Search our weather history database for the weather conditions in past years. The results will help you decide how hot, cold, wet, or windy it might be!

Date:

Astronomy

Apr. 28, 2014 Rise Set
Actual Time 6:09 AM EDT 8:07 PM EDT
Civil Twilight 5:39 AM EDT 8:38 PM EDT
Nautical Twilight 5:02 AM EDT 9:15 PM EDT
Astronomical Twilight 4:21 AM EDT 9:56 PM EDT
Moon 5:48 AM EDT (4/28) 7:42 PM EDT (4/28)
Length of Visible Light 14h 58m
Length of Day
13h 57m
Waning Crescent, 0% of the Moon is Illuminated
Apr 28
Waning Crescent
Apr 29
New
May 6
First Quarter
May 14
Full
May 21
Last Quarter

Hourly Weather History & Observations

Time (EDT) Temp. Windchill Dew Point Humidity Pressure Visibility Wind Dir Wind Speed Gust Speed Precip Events Conditions
12:54 AM 36.0 °F - 30.0 °F 79% 30.25 in 10.0 mi Calm Calm - N/A   Clear
1:54 AM 34.0 °F - 30.0 °F 85% 30.22 in 10.0 mi Calm Calm - N/A   Clear
2:54 AM 33.1 °F 27.7 °F 28.9 °F 85% 30.20 in 10.0 mi SE 5.8 mph - N/A   Clear
4:54 AM 32.0 °F 28.7 °F 28.0 °F 85% 30.21 in 10.0 mi SSE 3.5 mph - N/A   Clear
5:54 AM 30.9 °F 26.2 °F 28.0 °F 89% 30.22 in 10.0 mi SSE 4.6 mph - N/A   Clear
6:54 AM 32.0 °F 27.5 °F 28.9 °F 88% 30.23 in 10.0 mi SE 4.6 mph - N/A   Clear
7:54 AM 37.0 °F 32.4 °F 30.9 °F 79% 30.21 in 10.0 mi SE 5.8 mph - N/A   Clear
8:54 AM 44.1 °F 40.8 °F 33.1 °F 65% 30.22 in 10.0 mi East 5.8 mph - N/A   Clear
9:54 AM 51.1 °F - 33.1 °F 50% 30.19 in 10.0 mi ESE 8.1 mph - N/A   Clear
10:54 AM 54.0 °F - 32.0 °F 43% 30.17 in 10.0 mi ESE 9.2 mph - N/A   Clear
11:54 AM 55.0 °F - 32.0 °F 42% 30.14 in 10.0 mi SE 16.1 mph - N/A   Clear
12:54 PM 55.9 °F - 32.0 °F 40% 30.11 in 10.0 mi ENE 5.8 mph 19.6 mph N/A   Clear
1:54 PM 57.0 °F - 30.9 °F 37% 30.09 in 10.0 mi Variable 3.5 mph - N/A   Clear
2:54 PM 59.0 °F - 34.0 °F 39% 30.05 in 10.0 mi East 11.5 mph 18.4 mph N/A   Clear
3:54 PM 59.0 °F - 34.0 °F 39% 30.06 in 10.0 mi ESE 8.1 mph - N/A   Clear
5:54 PM 59.0 °F - 34.0 °F 39% 30.04 in 10.0 mi East 9.2 mph - N/A   Clear
6:54 PM 57.0 °F - 33.1 °F 40% 30.04 in 10.0 mi East 3.5 mph - N/A   Clear
7:54 PM 55.9 °F - 33.1 °F 42% 30.04 in 10.0 mi ESE 8.1 mph - N/A   Clear
8:54 PM 54.0 °F - 34.0 °F 47% 30.06 in 10.0 mi SSE 8.1 mph - N/A   Clear
9:54 PM 52.0 °F - 33.1 °F 49% 30.06 in 10.0 mi Calm Calm - N/A   Clear
10:54 PM 51.1 °F - 33.1 °F 50% 30.04 in 10.0 mi South 5.8 mph - N/A   Clear
11:54 PM 51.1 °F - 32.0 °F 48% 30.03 in 10.0 mi South 8.1 mph - N/A   Clear